When you browse on this site, cookies collect data to enhance your experience and personalize the content and advertising you see.
Visit our Privacy Policy to learn more. By continuing to use the site, you agree to this use of cookies and data.
  • Em Portugal
  • Lista de países
  • Para 7 dias
  • Temperatura da água
  • Mapa do tempo
  • Widgets de tempo
  • user-avatar
    Iniciar Sessão

    Previsão horária em Jalalabad

    Hoje, 8 Dezembro, Domingo

    Tempo Temperatura Precipitação Vento Pressão Humidade
    00:00 +13°C° 0 mm 1 m/s 713 mmHg 23%
    01:00 +13°C° 0 mm 1 m/s 713 mmHg 23%
    02:00 +12°C° 0 mm 1 m/s 712 mmHg 23%
    03:00 +12°C° 0 mm 1 m/s 712 mmHg 22%
    04:00 +12°C° 0 mm 1 m/s 712 mmHg 22%
    05:00 +11°C° 0 mm 1 m/s 712 mmHg 23%
    06:00 +11°C° 0 mm 1 m/s 712 mmHg 23%
    07:00 +12°C° 0 mm 1 m/s 712 mmHg 23%
    08:00 +12°C° 0 mm 1 m/s 713 mmHg 23%
    09:00 +14°C° 0 mm 1 m/s 713 mmHg 19%
    10:00 +15°C° 0 mm 0 m/s 713 mmHg 16%
    11:00 +18°C° 0 mm 0 m/s 713 mmHg 12%
    12:00 +18°C° 0 mm 0 m/s 713 mmHg 12%
    13:00 +19°C° 0 mm 0 m/s 712 mmHg 12%
    14:00 +19°C° 0 mm 0 m/s 712 mmHg 11%
    15:00 +18°C° 0 mm 0 m/s 712 mmHg 16%
    16:00 +17°C° 0 mm 0 m/s 711 mmHg 20%
    17:00 +15°C° 0 mm 0 m/s 711 mmHg 24%
    18:00 +14°C° 0 mm 0 m/s 711 mmHg 24%
    19:00 +14°C° 0 mm 0 m/s 712 mmHg 24%
    20:00 +13°C° 0 mm 0 m/s 712 mmHg 25%
    21:00 +13°C° 0 mm 0 m/s 712 mmHg 24%
    22:00 +13°C° 0 mm 0 m/s 712 mmHg 24%
    23:00 +12°C° 0 mm 0 m/s 711 mmHg 24%

    Amanhã, 9 Dezembro, Segunda-feira

    Tempo Temperatura Precipitação Vento Pressão Humidade
    00:00 +12°C° 0 mm 0 m/s 711 mmHg 24%
    01:00 +12°C° 0 mm 0 m/s 711 mmHg 24%
    02:00 +11°C° 0 mm 0 m/s 711 mmHg 23%
    03:00 +11°C° 0 mm 0 m/s 711 mmHg 23%
    04:00 +11°C° 0 mm 0 m/s 710 mmHg 23%
    05:00 +11°C° 0 mm 0 m/s 710 mmHg 23%
    06:00 +11°C° 0 mm 0 m/s 710 mmHg 23%
    07:00 +12°C° 0 mm 0 m/s 711 mmHg 24%
    08:00 +12°C° 0 mm 0 m/s 711 mmHg 24%
    09:00 +14°C° 0 mm 0 m/s 711 mmHg 20%
    10:00 +18°C° 0 mm 1 m/s 712 mmHg 16%
    11:00 +20°C° 0 mm 1 m/s 712 mmHg 12%
    12:00 +20°C° 0 mm 1 m/s 712 mmHg 12%
    13:00 +21°C° 0 mm 1 m/s 712 mmHg 12%
    14:00 +21°C° 0 mm 1 m/s 711 mmHg 12%
    15:00 +18°C° 0 mm 0 m/s 711 mmHg 16%
    16:00 +17°C° 0 mm 0 m/s 711 mmHg 20%
    17:00 +15°C° 0 mm 0 m/s 711 mmHg 24%
    18:00 +14°C° 0 mm 0 m/s 711 mmHg 24%
    19:00 +14°C° 0 mm 0 m/s 711 mmHg 25%
    20:00 +13°C° 0 mm 0 m/s 712 mmHg 25%
    21:00 +13°C° 0 mm 0 m/s 712 mmHg 25%
    22:00 +12°C° 0 mm 0 m/s 711 mmHg 25%
    23:00 +12°C° 0 mm 0 m/s 711 mmHg 25%

    Depois de amanhã, 10 Dezembro, Terça-feira

    Tempo Temperatura Precipitação Vento Pressão Humidade
    00:00 +12°C° 0 mm 0 m/s 711 mmHg 25%
    01:00 +12°C° 0 mm 0 m/s 711 mmHg 25%
    02:00 +11°C° 0 mm 0 m/s 711 mmHg 25%
    03:00 +11°C° 0 mm 0 m/s 710 mmHg 26%
    04:00 +11°C° 0 mm 0 m/s 709 mmHg 26%
    05:00 +11°C° 0 mm 0 m/s 709 mmHg 26%
    06:00 +11°C° 0 mm 0 m/s 709 mmHg 26%
    07:00 +11°C° 0 mm 0 m/s 709 mmHg 27%
    08:00 +11°C° 0 mm 0 m/s 710 mmHg 27%
    09:00 +13°C° 0 mm 0 m/s 710 mmHg 23%
    10:00 +15°C° 0 mm 0 m/s 710 mmHg 19%
    11:00 +17°C° 0 mm 0 m/s 710 mmHg 16%
    12:00 +17°C° 0 mm 0 m/s 709 mmHg 15%
    13:00 +18°C° 0 mm 0 m/s 709 mmHg 15%
    14:00 +18°C° 0 mm 0 m/s 708 mmHg 15%
    15:00 +17°C° 0 mm 0 m/s 708 mmHg 19%
    16:00 +16°C° 0 mm 0 m/s 708 mmHg 24%
    17:00 +15°C° 0 mm 0 m/s 707 mmHg 28%
    18:00 +15°C° 0 mm 0 m/s 708 mmHg 29%
    19:00 +14°C° 0 mm 0 m/s 708 mmHg 31%
    20:00 +13°C° 0 mm 0 m/s 708 mmHg 32%
    21:00 +13°C° 0 mm 0 m/s 708 mmHg 33%
    22:00 +12°C° 0 mm 0 m/s 708 mmHg 33%
    23:00 +12°C° 0 mm 0 m/s 708 mmHg 33%

    11 Dezembro, Quarta-feira

    Tempo Temperatura Precipitação Vento Pressão Humidade
    00:00 +11°C° 0 mm 0 m/s 708 mmHg 34%
    01:00 +11°C° 0 mm 0 m/s 708 mmHg 34%
    02:00 +11°C° 0 mm 0 m/s 708 mmHg 35%
    03:00 +10°C° 0 mm 0 m/s 708 mmHg 36%
    04:00 +10°C° 0 mm 0 m/s 708 mmHg 37%
    05:00 +10°C° 0 mm 0 m/s 708 mmHg 38%
    06:00 +10°C° 0 mm 0 m/s 708 mmHg 38%
    07:00 +10°C° 0 mm 0 m/s 709 mmHg 38%
    08:00 +10°C° 0 mm 0 m/s 709 mmHg 39%
    09:00 +12°C° 0 mm 0 m/s 709 mmHg 34%
    10:00 +14°C° 0 mm 0 m/s 709 mmHg 29%
    11:00 +16°C° 0 mm 0 m/s 709 mmHg 25%
    12:00 +17°C° 0 mm 0 m/s 709 mmHg 24%
    13:00 +17°C° 0 mm 0 m/s 708 mmHg 23%
    14:00 +20°C° 0 mm 1 m/s 708 mmHg 22%
    15:00 +17°C° 0 mm 0 m/s 707 mmHg 25%
    16:00 +16°C° 0 mm 0 m/s 707 mmHg 29%
    17:00 +15°C° 0 mm 0 m/s 707 mmHg 33%
    18:00 +14°C° 0 mm 0 m/s 707 mmHg 34%
    19:00 +14°C° 0 mm 0 m/s 708 mmHg 35%
    20:00 +13°C° 0 mm 0 m/s 708 mmHg 36%
    21:00 +13°C° 0 mm 0 m/s 708 mmHg 36%
    22:00 +13°C° 0 mm 0 m/s 708 mmHg 36%
    23:00 +13°C° 0 mm 0 m/s 709 mmHg 36%

    12 Dezembro, Quinta-feira

    Tempo Temperatura Precipitação Vento Pressão Humidade
    00:00 +13°C° 0 mm 0 m/s 708 mmHg 36%
    01:00 +13°C° 0 mm 0 m/s 708 mmHg 36%
    02:00 +13°C° 0 mm 1 m/s 708 mmHg 36%
    03:00 +13°C° 0 mm 1 m/s 707 mmHg 36%
    04:00 +14°C° 0 mm 1 m/s 707 mmHg 36%
    05:00 +14°C° 0 mm 1 m/s 707 mmHg 37%
    06:00 +14°C° 0.1 mm 1 m/s 708 mmHg 41%
    07:00 +14°C° 0.1 mm 1 m/s 708 mmHg 46%
    08:00 +14°C° 0.1 mm 2 m/s 708 mmHg 50%
    09:00 +13°C° 0.8 mm 2 m/s 708 mmHg 59%
    10:00 +12°C° 0.8 mm 2 m/s 708 mmHg 68%
    11:00 +10°C° 0.8 mm 2 m/s 708 mmHg 77%
    12:00 +10°C° 1.2 mm 2 m/s 707 mmHg 80%
    13:00 +9°C° 1.2 mm 2 m/s 707 mmHg 83%
    14:00 +9°C° 1.2 mm 2 m/s 706 mmHg 86%
    15:00 +9°C° 0.3 mm 2 m/s 706 mmHg 86%
    16:00 +10°C° 0.3 mm 1 m/s 706 mmHg 85%
    17:00 +10°C° 0.3 mm 1 m/s 706 mmHg 85%
    18:00 +10°C° 0.2 mm 1 m/s 707 mmHg 85%
    19:00 +10°C° 0.2 mm 1 m/s 707 mmHg 84%
    20:00 +9°C° 0.2 mm 0 m/s 707 mmHg 84%
    21:00 +9°C° 0.1 mm 0 m/s 707 mmHg 84%
    22:00 +9°C° 0.1 mm 0 m/s 708 mmHg 84%
    23:00 +9°C° 0.1 mm 0 m/s 708 mmHg 84%

    13 Dezembro, Sexta-feira

    Tempo Temperatura Precipitação Vento Pressão Humidade
    00:00 +9°C° 0.1 mm 0 m/s 707 mmHg 84%
    01:00 +10°C° 0.1 mm 1 m/s 707 mmHg 84%
    02:00 +10°C° 0.1 mm 1 m/s 707 mmHg 84%
    03:00 +10°C° 0.1 mm 1 m/s 707 mmHg 84%
    04:00 +10°C° 0.1 mm 1 m/s 707 mmHg 83%
    05:00 +10°C° 0.1 mm 1 m/s 707 mmHg 83%
    06:00 +10°C° 0 mm 1 m/s 707 mmHg 81%
    07:00 +10°C° 0 mm 1 m/s 708 mmHg 80%
    08:00 +9°C° 0 mm 0 m/s 708 mmHg 79%
    09:00 +10°C° 0 mm 0 m/s 709 mmHg 75%
    10:00 +11°C° 0 mm 0 m/s 709 mmHg 70%
    11:00 +11°C° 0 mm 0 m/s 709 mmHg 66%
    12:00 +12°C° 0 mm 0 m/s 708 mmHg 62%
    13:00 +13°C° 0 mm 1 m/s 708 mmHg 59%
    14:00 +14°C° 0 mm 1 m/s 708 mmHg 55%
    15:00 +14°C° 0 mm 1 m/s 708 mmHg 57%
    16:00 +14°C° 0 mm 1 m/s 709 mmHg 58%
    17:00 +14°C° 0 mm 1 m/s 709 mmHg 60%
    18:00 +13°C° 0 mm 1 m/s 710 mmHg 62%
    19:00 +11°C° 0 mm 0 m/s 711 mmHg 64%
    20:00 +11°C° 0 mm 0 m/s 712 mmHg 66%
    21:00 +11°C° 0 mm 0 m/s 712 mmHg 67%
    22:00 +10°C° 0 mm 0 m/s 712 mmHg 68%
    23:00 +10°C° 0 mm 0 m/s 713 mmHg 69%
    Mostrar mais